K1FSY-9 Weather Reports


time (UTC)temp
C
wind
direction
speed
KPH
gust
KPH
rain 1hr
cm
rain 24hr
cm
rain mn
cm
humidity
%
barometer
mb
20260510185218 20 171 1.6 11.3 0.00 0.00 1.60 80 1008.8
20260510182215 20 234 1.6 6.4 0.00 0.00 1.60 75 1008.8
20260510175212 20 206 1.6 11.3 0.00 0.00 1.60 83 1008.8
20260510172207 20 223 3.2 9.7 0.00 0.00 1.60 83 1008.4
20260510162202 17 219 1.6 8.0 0.00 0.00 1.60 88 1009.1
20260510155200 17 179 1.6 6.4 0.00 0.00 1.60 97 1009.8
20260510152157 16 187 1.6 6.4 0.00 0.00 1.60 99 1010.1
20260510142148 13 202 1.6 6.4 0.00 0.00 1.60 99 1010.4
20260510135147 12 219 1.6 4.8 0.00 0.00 1.60 99 1010.8
20260510132141 11 225 1.6 3.2 0.00 0.00 1.60 99 1010.8
20260510085533 9 221 1.6 4.8 0.00 0.00 1.60 99 1010.1
20260510085119 9 221 1.6 4.8 0.00 0.00 1.60 99 1010.1
20260510075206 9 255 1.6 4.8 0.00 0.00 1.60 99 1009.8
20260510075113 9 255 1.6 4.8 0.00 0.00 1.60 99 1009.8
20260510072110 9 225 0.0 3.2 0.00 0.00 1.60 99 1009.4
20260510065111 10 240 1.6 4.8 0.00 0.00 1.60 99 1009.4
20260510062103 10 247 1.6 6.4 0.00 0.00 1.60 99 1009.1
20260510055058 10 237 1.6 6.4 0.00 0.00 1.60 99 1009.1
20260510052053 10 230 1.6 3.2 0.00 0.00 1.60 99 1009.4
20260510045049 10 223 0.0 3.2 0.00 0.00 1.60 99 1009.4
20260510042045 10 220 0.0 3.2 0.00 0.00 1.60 99 1009.1
20260510035042 10 250 0.0 3.2 0.00 1.60 1.60 99 1009.1
20260510025040 10 230 1.6 3.2 0.00 1.60 1.60 99 1009.4
20260510015033 10 267 0.0 3.2 0.00 1.60 1.60 99 1009.1
20260510012028 10 273 0.0 3.2 0.00 1.60 1.60 99 1009.1
20260510005026 10 278 0.0 3.2 0.00 1.60 1.60 99 1008.4
20260510002026 10 289 0.0 3.2 0.00 1.60 1.60 99 1008.4
20260509225014 11 249 0.0 3.2 0.00 1.57 1.57 99 1009.1
20260509215008 11 219 1.6 3.2 0.00 1.40 1.40 99 1009.1
20260509212007 11 230 0.0 3.2 0.00 1.35 1.35 99 1009.1
20260509205001 11 228 1.6 4.8 0.00 1.32 1.32 98 1009.1
20260509201957 11 223 0.0 3.2 0.00 1.14 1.14 98 1009.4
20260509194956 11 269 0.0 6.4 0.00 1.02 1.02 97 1009.4